Regional Weather Roundup
Issued by NWS

Home | Current Version | Previous Version | Text Only | Print | Product List | Glossary On
Versions: 1 2 3 4 5 6 7 8 9 10 11 12 13 14 15 16 17 18 19 20 21 22 23 24 25 26 27 28 29 30 31 32 33 34 35 36 37 38 39 40 41 42 43 44 45 46 47 48 49 50
000
ASUS43 KMKX 300521
RWRWI

WISCONSIN REGIONAL WEATHER ROUNDUP
NATIONAL WEATHER SERVICE MILWAUKEE/SULLIVAN WI
1200 AM CDT WED JUL 30 2014

NOTE: "FAIR" INDICATES FEW OR NO CLOUDS BELOW 12,000 FEET WITH NO
SIGNIFICANT WEATHER AND/OR OBSTRUCTIONS TO VISIBILITY.

WIZ001-002-006>008-014>016-023>028-300600-
NORTHWEST WISCONSIN

CITY           SKY/WX    TMP DP  RH WIND       PRES   REMARKS
SUPERIOR ARPT  PTCLDY    56  56  99 CALM      30.04S
ASHLAND        PTCLDY    52  51  97 CALM      30.05R FOG
HAYWARD        PTCLDY    56  56 100 CALM      30.05S FOG
SIREN          CLOUDY    59  58  96 N3        30.07R FOG
RICE LAKE      MOCLDY    59  57  92 CALM      30.06F
LADYSMITH      MOCLDY    60  57  91 W7        30.05S
EAU CLAIRE     PTCLDY    59  58  96 CALM      30.04R
MENOMONIE      MOCLDY    60  58  92 NW5       30.07R
NEW RICHMOND   MOCLDY    61  55  82 CALM      30.07S
OSCEOLA        MOCLDY    62  58  87 S7        30.08F
$$

WIZ003>005-009-010-017-018-300600-
NORTH CENTRAL WISCONSIN

CITY           SKY/WX    TMP DP  RH WIND       PRES   REMARKS
WOODRUFF       CLEAR     55  51  88 CALM      30.04S
RHINELANDER    CLEAR     54  53  97 CALM      30.04R FOG
EAGLE RIVER    MOCLDY    55  53  94 N3        30.04S
LAND O LAKES   CLEAR     49  48  97 CALM      30.05S FOG
PHILLIPS       FOG       53  53 100 CALM      30.03S VSB 3/4
TOMAHAWK       FOG       51  49  96 CALM      30.04S VSB 1/4
MEDFORD        CLOUDY    54  53  99 CALM      30.03R
MERRILL        PTCLDY    53  53 100 CALM      30.03R
$$

WIZ029-030-035-036-043>047-300600-
CENTRAL WISCONSIN

CITY           SKY/WX    TMP DP  RH WIND       PRES   REMARKS
WAUSAU         CLOUDY    58  55  90 NW6       30.01S
MOSINEE        PTCLDY    57  54  88 NW8       30.03S
MARSHFIELD     MOCLDY    57  55  93 W6        30.02S
STEVENS POINT  PTCLDY    58  53  85 CALM      30.02F
WAUPACA        PTCLDY    61  57  85 CALM      30.01S
WAUTOMA        MOCLDY    59  57  92 CALM      30.02F
WISC RAPIDS    MOCLDY    60  56  86 CALM      30.04S
CAMP DOUGLAS   MOCLDY    57  57 100 CALM      30.03F
$$

WIZ011>013-019>022-031-037>040-048>050-300600-
NORTHEAST WISCONSIN

CITY           SKY/WX    TMP DP  RH WIND       PRES   REMARKS
ANTIGO         MOCLDY    54  53  97 CALM      30.03S
STURGEON BAY   CLOUDY    61  55  82 NE7       29.99S
GREEN BAY      MOCLDY    60  59  96 W5        29.98S
MANITOWOC      PTCLDY    60  57  89 MISG      29.99R
APPLETON       CLEAR     55  55 100 W6        30.00S
CLINTONVILLE   PTCLDY    59  55  88 NW3       29.99S
OSHKOSH        PTCLDY    59  57  93 W5        30.00S
$$

WIZ032>034-041-042-053>061-300600-
SOUTHWEST WISCONSIN

CITY           SKY/WX    TMP DP  RH WIND       PRES   REMARKS
LA CROSSE      MOCLDY    64  59  83 N3        30.05F
SPARTA         MOCLDY    58  58  97 CALM      30.05S
VIROQUA        MOCLDY    59  59 100 W5        30.07S
BOSCOBEL       MOCLDY    63  60  90 CALM      30.06S
PRAIRIE DU CHI CLOUDY    64  58  80 CALM      30.07R
PLATTEVILLE    MOCLDY    62  59  92 SW3       30.06F
$$

WIZ056-057-062-063-064-067-068-300600-
SOUTH CENTRAL WISCONSIN

CITY           SKY/WX    TMP DP  RH WIND       PRES   REMARKS
BARABOO/DELLS  MOCLDY    58  55  89 CALM      30.03F
LONE ROCK      MOCLDY    64  59  83 W5        30.05R
WATERTOWN      PTCLDY    56  56  99 CALM      30.02S
MADISON        PTCLDY    60  56  86 CALM      30.03S
MIDDLETON      FAIR      60  58  94 W3        30.04S
MONROE         MOCLDY    61  57  88 NW7       30.05S
JANESVILLE     PTCLDY    61  55  82 SW3       30.03S
$$

WIZ051-052-058>065-066-070>072-300600-
SOUTHEAST WISCONSIN

CITY           SKY/WX    TMP DP  RH WIND       PRES   REMARKS
MILWAUKEE      MOCLDY    61  57  87 W7        30.00S
WAUKESHA       CLEAR     54  54 100 CALM      30.02S
MILWAUKEE/TIMM CLEAR     57  54  88 W3        30.02R
RACINE         PTCLDY    59  57  93 W8        30.01F
BURLINGTON     PTCLDY    54  54  99 SW5       30.01F
KENOSHA        CLEAR     56  55  97 W5        30.00F
FOND DU LAC    PTCLDY    58  55  90 SW6       30.01F
SHEBOYGAN      PTCLDY    57  55  93 W5        29.99S
WEST BEND      PTCLDY    55  54  94 W6        30.01S
JUNEAU         PTCLDY    55  54  95 CALM      30.03S FOG
$$

LSZ147-162-300600-
LAKE SUPERIOR

STATION/POSITION TIME  TEMP    WIND        PRES    WAVE
                       AIR SEA DIR/SP/G            HT/PER
                 (UTC) (F)     (DEG/KT/KT) (MB)    (FT/S)
W MID LAKE BUOY  0450   47 44  100/  2/  4 1017.6R   0
PORT WING        0440   57     150/  1/  3 1017.6R
SAXON HARBOR     0440           60/  8/ 10 1017.3S
$$

LMZ867-665-643>646-300600-
LAKE MICHIGAN

STATION/POSITION TIME  TEMP    WIND        PRES    WAVE
                       AIR SEA DIR/SP/G            HT/PER
                 (UTC) (F)     (DEG/KT/KT) (MB)    (FT/S)
N MID LAKE BUOY  0450   57 54  320/  4/  4 1015.0R   0
NORTHPORT PIER   0400   63      10/  4/  5 1015.6R
SISTER BAY       0440   60        CALM       N/A
ALGOMA LAKESHORE 0321          340/  6/  7   N/A
KEWAUNEE LAKESHO 0400   61     280/  2/  3 1015.6F
SHEBOYGAN LAKESH 0500   63     270/ 11/ 14 1015.4R
PORT WASHINGTON  0440   61     280/  6/  9 1016.3R
ATWATER BUOY     0500   62     280/  4     1016.8S
MILWAUKEE LAKESH 0500   62     290/  6/  7   N/A
S MID LAKE BUOY  0450   61 60  270/  2/  4 1015.6F   1
KENOSHA   LAKESH 0500   62     260/  8/ 10 1015.6F
$$

TC  - TEMPERATURE IN CELSIUS
VSB - VISIBILITY IN STATUTE MILES
WCI - WIND CHILL INDEX
HX  - HEAT INDEX




USA.gov is the U.S. government's official web portal to all federal, state and local government web resources and services.